Regional Weather Roundup
Issued by NWS

Home | Current Version | Previous Version | Graphics & Text | Print | Product List | Glossary On
Versions: 1 2 3 4 5 6 7 8 9 10 11 12 13 14 15 16 17 18 19 20 21 22 23 24 25 26 27 28 29 30 31 32 33 34 35 36 37 38 39 40 41 42 43 44 45 46 47 48 49 50
000
ASUS43 KMKX 111859
RWRWI

WISCONSIN REGIONAL WEATHER ROUNDUP
NATIONAL WEATHER SERVICE MILWAUKEE/SULLIVAN WI
100 PM CST THU FEB 11 2016

NOTE: "FAIR" INDICATES FEW OR NO CLOUDS BELOW 12,000 FEET WITH NO
SIGNIFICANT WEATHER AND/OR OBSTRUCTIONS TO VISIBILITY.

WIZ001-002-006>008-014>016-023>028-112000-
NORTHWEST WISCONSIN

CITY           SKY/WX    TMP DP  RH WIND       PRES   REMARKS
SUPERIOR ARPT  CLOUDY    10  -6  49 SW5       30.26F WCI   2
ASHLAND        CLOUDY    11  -3  53 SW7       30.24F WCI   0
HAYWARD        CLOUDY     9  -5  53 S7        30.21F WCI  -2
SIREN          SUNNY     11  -7  42 SW7       30.26F WCI   1
CUMBERLAND     PTSUNNY    9  -8  47 S6        30.24F WCI  -1
RICE LAKE      SUNNY      9  -8  46 CALM      30.27F
CHETEK         SUNNY     10  -6  48 SW3       30.26F
LADYSMITH      SUNNY     13  -1  53 CALM      30.24F
EAU CLAIRE     NOT AVBL
MENOMONIE      CLOUDY    21   1  41 CALM      30.28F
NEW RICHMOND   MOSUNNY   13  -4  44 CALM      30.28F
OSCEOLA        CLOUDY    12  -3  49 CALM      30.30F
$$

WIZ003>005-009-010-017-018-112000-
NORTH CENTRAL WISCONSIN

CITY           SKY/WX    TMP DP  RH WIND       PRES   REMARKS
MANITOWISH WTR MOSUNNY   10  -2  59 W9        30.15F WCI  -4
ARBOR VITAE    SUNNY     13  -3  48 NW8       30.15F WCI   1
WOODRUFF       SUNNY     13  -3  48 NW8       30.15F WCI   1
RHINELANDER    MOSUNNY   13  -4  46 W13       30.14F WCI  -2
EAGLE RIVER    SUNNY     13  -6  42 W12       30.13F WCI  -1
LAND O LAKES   MOSUNNY   14   0  53 W7        30.14S WCI   4
PHILLIPS       CLOUDY     9  -3  58 W3        30.18F
TOMAHAWK       SUNNY     13  -6  42 W6        30.18F WCI   4
MEDFORD        SUNNY     12  -4  48 W7        30.19F WCI   1
MERRILL        SUNNY     15  -3  43 W5        30.20F WCI   8
$$

WIZ029-030-035-036-043>047-112000-
CENTRAL WISCONSIN

CITY           SKY/WX    TMP DP  RH WIND       PRES   REMARKS
WAUSAU         SUNNY     13  -4  46 W9        30.20F WCI   1
MOSINEE        NOT AVBL
MARSHFIELD     SUNNY     10  -3  55 W9        30.23F WCI  -3
STEVENS POINT  SUNNY     11  -6  47 W9        30.25F WCI  -2
WAUPACA        SUNNY     19  -1  41 W8        30.26F WCI   8
WAUTOMA        NOT AVBL
WISC RAPIDS    SUNNY     14  -4  44 VRB7      30.27F WCI   4
CAMP DOUGLAS   NOT AVBL
$$

WIZ011>013-019>022-031-037>040-048>050-112000-
NORTHEAST WISCONSIN

CITY           SKY/WX    TMP DP  RH WIND       PRES   REMARKS
ANTIGO         SUNNY     13  -3  49 W10       30.16F WCI   0
SHAWANO        SUNNY     19   1  45 SW6       30.23F WCI  11
OCONTO         SUNNY     15   1  53 W8        30.24F WCI   4
STURGEON BAY   SUNNY     12   0  57 W10       30.24F WCI  -1
GREEN BAY      SUNNY     14   1  56 SW12      30.25F WCI   0
MANITOWOC      NOT AVBL
APPLETON       SUNNY     16   0  48 SW10      30.24F WCI   3
CLINTONVILLE   SUNNY     18   0  45 W7        30.25F WCI   8
OSHKOSH        SUNNY     14   1  56 W8        30.27F WCI   3
$$

WIZ032>034-041-042-053>061-112000-
SOUTHWEST WISCONSIN

CITY           SKY/WX    TMP DP  RH WIND       PRES   REMARKS
LA CROSSE      SUNNY     16  -3  43 CALM      30.32F
SPARTA         SUNNY     15  -3  44 W3        30.31F
VIROQUA        SUNNY     14  -5  42 CALM      30.27F
BOSCOBEL       SUNNY     18  -4  37 SW6       30.33F WCI  10
PRAIRIE DU CHI SUNNY     17  -1  45 SW6       30.34F WCI   8
PLATTEVILLE    SUNNY     14   1  55 CALM      30.31F
$$

WIZ056-057-062-063-064-067-068-112000-
SOUTH CENTRAL WISCONSIN

CITY           SKY/WX    TMP DP  RH WIND       PRES   REMARKS
REEDSBURG      SUNNY     13  -3  50 W5        30.30F WCI   5
BARABOO/DELLS  SUNNY     14  -4  45 W6        30.29F WCI   5
LONE ROCK      NOT AVBL
MINERAL POINT  SUNNY     18  -2  41 W3        30.29F
MADISON        MOSUNNY   15  -2  46 NW8       30.30F WCI   4
MIDDLETON      SUNNY     18  -1  43 W5        30.30F WCI  11
WATERTOWN      SUNNY     15   2  57 W7        30.30S WCI   5
MONROE         SUNNY     19   0  42 NW6       30.27F WCI  11
JANESVILLE     SUNNY     19   3  49 NW8       30.30F WCI   9
$$

WIZ051-052-058>065-066-070>072-112000-
SOUTHEAST WISCONSIN

CITY           SKY/WX    TMP DP  RH WIND       PRES   REMARKS
MILWAUKEE      MOSUNNY   17  -1  45 W9        30.29F WCI   6
WAUKESHA       SUNNY     12   0  57 W7        30.29F WCI   2
MILWAUKEE/TIMM SUNNY      1  -2  85 W8        30.29F WCI -12
RACINE         SUNNY     17  -1  45 W7        30.31F WCI   8
BURLINGTON     SUNNY     17   0  47 W6        30.30S WCI   8
KENOSHA        SUNNY     17   3  54 NW9       30.30F WCI   6
FOND DU LAC    SUNNY     14   1  56 W9        30.28F WCI   2
SHEBOYGAN      SUNNY     14   1  56 NW9       30.26F WCI   2
WEST BEND      SUNNY     16   0  48 NW8       30.27F WCI   5
JUNEAU         SUNNY     13   1  58 W6        30.29S WCI   4
$$

LSZ147-162-112000-
LAKE SUPERIOR

STATION/POSITION TIME  TEMP    WIND        PRES    WAVE
                       AIR SEA DIR/SP/G            HT/PER
                 (UTC) (F)     (DEG/KT/KT) (MB)    (FT/S)
DEVILS ISLAND    1800   12     260/ 14/ 17 1025.4F
SAXON HARBOR     1800   11                 1024.4
$$

LMZ867-665-643>646-112000-
LAKE MICHIGAN

STATION/POSITION TIME  TEMP    WIND        PRES    WAVE
                       AIR SEA DIR/SP/G            HT/PER
                 (UTC) (F)     (DEG/KT/KT) (MB)    (FT/S)
CHAMBERS ISLAND  1800   16     250/  5/ 10 1023.7F
ALGOMA LAKESHORE 1811          310/  4/ 10   N/A
KEWAUNEE LAKESHO 1800   13     280/  8/ 11 1023.8S
SHEBOYGAN LAKESH 1800   12     270/  3/  6 1027.3F
PORT WASHINGTON  1800   15     260/  7/ 11 1026.8F
MILWAUKEE LAKESH 1810   15     320/  7/ 10   N/A
KENOSHA   LAKESH 1800   15     270/  9/ 11 1026.4S
$$

TC  - TEMPERATURE IN CELSIUS
VSB - VISIBILITY IN STATUTE MILES
WCI - WIND CHILL INDEX
HX  - HEAT INDEX




USA.gov is the U.S. government's official web portal to all federal, state and local government web resources and services.